Location: *
(58.7167°N, 26.1833°E)
Time: 10:04:04
(UTC+00:00)

Cosmos 405 Rocket - Pass Details

Date: 25 August 2019
Orbit: 490 x 556 km, 81.3° (Epoch: 16 September)

Event Time Altitude Azimuth Distance (km) Brightness Sun altitude
Exits shadow 21:27:45 40° 101° (E) 756 3.3 -19.9°
Maximum altitude 21:27:50 41° 97° (E) 755 3.3 -19.9°
Drops below altitude 10° 21:31:23 10° 27° (NNE) 1,719 6.0 -20.0°
Sets 21:33:34 0° 20° (NNE) 2,600 7.2 -20.1°
